Regional Weather Roundup
Issued by NWS Green Bay, WI

Home | Current Version | Previous Version | Graphics & Text | Print | Product List | Glossary Off
Versions: 1 2 3 4 5 6 7 8 9 10 11 12 13 14 15 16 17 18 19 20 21 22 23 24 25 26 27 28 29 30 31 32 33 34 35 36 37 38 39 40 41 42 43 44 45 46 47 48 49 50

000
ASUS43 KGRB 221610
RWRGRB

NORTH-CENTRAL AND NORTHEAST WISCONSIN REGIONAL WEATHER ROUNDUP
NATIONAL WEATHER SERVICE GREEN BAY WI
1100 AM CDT TUE JUL 22 2014

WIZ005-009-010>012-018-019-221700-
NORTH CENTRAL WISCONSIN

CITY           SKY/WX    TMP DP  RH WIND       PRES   REMARKS
IRONWOOD       CLOUDY    72  64  78 W16G23    29.84R
MANITOWISH WTR CLOUDY    73  65  76 W16G24    29.88R
ARBOR VITAE    PTSUNNY   78  66  66 W13G22    29.89R
EAGLE RIVER    PTSUNNY   77  62  60 W21G28    29.86R
LAND O LAKES   CLOUDY    76  64  66 W18G24    29.87R
RHINELANDER    PTSUNNY   78  65  63 W15G29    29.89R
PHILLIPS       CLOUDY    74  65  72 NW8G20    29.91R
ANTIGO         CLOUDY    80  73  78 W16       29.88S
TOMAHAWK       MOSUNNY   78  64  61 W18       29.90R
MERRILL        PTSUNNY   83  73  70 NW17      29.86S
$$

WIZ013-073-221700-
NORTHEAST WISCONSIN

CITY           SKY/WX    TMP DP  RH WIND       PRES   REMARKS
IRON MOUNTAIN  PTSUNNY   84  71  65 W16G24    29.79F
MARINETTE      MOSUNNY   82  70  65 SW13      29.81F
OCONTO         MOSUNNY   82  72  71 SW14G21   29.84S
$$

WIZ017-030-035>037-045-221700-
CENTRAL WISCONSIN

CITY           SKY/WX    TMP DP  RH WIND       PRES   REMARKS
MEDFORD        MOSUNNY   79  67  67 NW17      29.89R
WAUSAU         PTSUNNY   85  72  65 W15       29.86S HX  91
MOSINEE        CLOUDY   N/A  73   0 SW16      29.89S
MARSHFIELD     PTSUNNY   84  74  71 W10       29.88F HX  91
WISC RAPIDS    PTSUNNY   85  73  67 W10       29.89F HX  91
STEVENS POINT  PTSUNNY   81  71  71 W12       29.89S
WAUPACA        PTSUNNY   86  71  62 SW12G18   29.88F HX  91
SHAWANO        CLOUDY    82  71  69 SW10G17   29.86S
CLINTONVILLE   CLOUDY    81  70  69 SW14      29.86S
$$

WIZ038-039-048-051-221700-
FOX VALLEY

CITY           SKY/WX    TMP DP  RH WIND       PRES   REMARKS
NWS GREEN BAY  CLOUDY    81  71  71 SW10      29.87F
APPLETON       CLOUDY    79  70  73 SW14G21   29.91R
OSHKOSH        CLOUDY    81  71  71 SW9G22    29.91R
FOND DU LAC    PTSUNNY   82  69  64 SW16G25   29.92F
$$

WIZ022-050-052-221700-
EAST CENTRAL WISCONSIN

CITY           SKY/WX    TMP DP  RH WIND       PRES   REMARKS
STURGEON BAY   PTSUNNY   82  70  65 SW17G28   29.86S
MANITOWOC      PTSUNNY   84  71  65 SW18      29.89F
SHEBOYGAN      CLOUDY    82  70  66 SW17G24   29.93R
$$

LMZ563-521-522-541>543-221700-
LAKESHORE

STATION/POSITION TIME  TEMP    WIND        PRES    VSBY  WAVE
                       AIR SEA DIR/SP/G                  HT/PER
                 (UTC) (F)     (DEG/KT/KT) (MB)    (MI)  (FT/S)
SHEBOYGAN LKSHOR 1600   69     170/ 17/ 18 1013.1S
KEWAUNEE LKSHORE 1600   57     170/ 15/ 16 1012.5F
NORTHPORT PIER   1600   71     170/ 12/ 21 1009.8F
N MID LAKE BUOY  1600   62 57  200/ 23/ 27 1009.1F         5/ 5
STURGEON BAY CG  1500   57 45  180/ 17     1012.1   1 1/4  2
CHAMBERS ISLAND  1600   75     180/  9/ 17 1009.5F
MENOMINEE LKSHOR 1600   79     210/ 13/ 18 1010.7R
$$



USA.gov is the U.S. government's official web portal to all federal, state and local government web resources and services.